Hourly Data Report for June 25, 2022

POWELL RIVER
BRITISH COLUMBIA
Current Station Operator: ECCC - MSC

49°50'04.400" N
124°29'48.500" W
125.00 m
1046392
71720
VOP

Download Data

Hourly Data (June 2022)
Hourly Data Report for June 25, 2022
TIME
LST
Temp Definition
°C
Dew Point Definition
°C
Rel Hum Definition
%
Precip. Amount Definition
mm

Wind Dir Definition
10's deg

Wind Spd Definition
km/h
Visibility Definition
km
Stn Press Definition
kPa
Hmdx Definition


Wind Chill Definition


Weather Definition


00:00 11.9 7.9 76 0.0       100.78     LegendNANA
01:00 11.5 7.9 78 0.0       100.81     LegendNANA
02:00 10.8 8.0 83 0.0       100.82     LegendNANA
03:00 10.3 8.0 85 0.0       100.83     LegendNANA
04:00 9.8 8.2 89 0.0       100.84     LegendNANA
05:00 10.7 8.3 85 0.0       100.87     LegendNANA
06:00 14.7 9.9 73 0.0       100.89     LegendNANA
07:00 17.4 11.1 66 0.0       100.93     LegendNANA
08:00 19.1 12.0 63 0.0       100.89     LegendNANA
09:00 19.5 11.3 59 0.0       100.92     LegendNANA
10:00 20.4 12.4 60 0.0       100.91     LegendNANA
11:00 21.5 11.3 52 0.0       100.88     LegendNANA
12:00 23.4 10.3 43 0.0       100.84 25   LegendNANA
13:00 24.0 10.4 42 0.0       100.81 25   LegendNANA
14:00 25.1 8.1 34 0.0       100.78 26   LegendNANA
15:00 25.8 8.2 33 0.0       100.75 26   LegendNANA
16:00 26.5 7.7 30 0.0       100.69 27   LegendNANA
17:00 26.4 6.4 28 0.0       100.65 26   LegendNANA
18:00 26.4 5.6 26 0.0       100.61 26   LegendNANA
19:00 25.9 6.7 29 0.0       100.58 26   LegendNANA
20:00 23.2 8.2 38 0.0       100.56     LegendNANA
21:00 18.3 9.5 56 0.0       100.55     LegendNANA
22:00 16.3 9.5 64 0.0       100.57     LegendNANA
23:00 15.4 10.0 70 0.0       100.58     LegendNANA

Notes on Data Quality.

Legend

  • E = Estimated
  • M = Missing
  • NA = Not Available*
  • [empty] = Indicates an unobserved value
Date modified: